Home   Weather   Imst   Past weeks
Flag for Austria

Past Weather in Imst, Tyrol, Austria — Yesterday and Last 2 Weeks

Now
65 °F

Mild.


Feels Like: 65 °F
Forecast: 67 / 37 °F
Wind: 5 mph from Northeast

Location: Landeck

Current Time: Sep 19, 2019 at 3:22:00 pm

Latest Report: Sep 19, 2019 at 3:00 pm


Visibility: N/A

Pressure: 30.13 "Hg (27.45 "Hg at 797m altitude)

Humidity: 45%

Dew Point: 43 °F

Location of ImstLocation

Past Weather in Imst — Graph

°F

Imst Temperature Yesterday

Maximum temperature yesterday: 67 °F (at 4:00 pm)
Minimum temperature yesterday: 52 °F (at 6:00 am)
Average temperature yesterday: 59 °F

High & Low Weather Summary for the Past Weeks

 TemperatureHumidityPressure
High82 °F (Sep 16, 4:00 pm)97% (Sep 6, 8:00 am)30.59 "Hg (Sep 6, 8:00 am)
Low42 °F (Sep 8, 3:00 pm)28% (Sep 16, 4:00 pm)29.85 "Hg (Sep 4, 6:00 pm)
Average57 °F74%30.16 "Hg
* Reported Sep 4 1:00 pm — Sep 19 1:00 pm, Imst. Weather by CustomWeather, © 2019

Note: Actual official high and low records may vary slightly from our data, if they occured in-between our weather recording intervals... More about our weather records

Advertising

Imst Weather History for the Previous 24 Hours

Scroll right to see more
 ConditionsComfort  
Time TempWeatherWind HumidityBarometerVisibility
1:00 pm
Thu, Sep 19
61 °FRefreshingly cool.1 mph50%30.19 "HgN/A
12:00 pmN/APassing clouds.9 mphN/AN/A2 mi
11:00 amN/APassing clouds.10 mphN/AN/A2 mi
10:00 am53 °FCool.2 mph67%30.27 "HgN/A
9:00 am52 °FCool.2 mph68%30.27 "HgN/A
8:00 am52 °FCool.1 mph69%30.25 "HgN/A
7:00 am52 °FLow clouds.1 mph70%30.23 "Hg5 mi
6:00 amN/APassing clouds.17 mphN/AN/A3 mi
5:00 am53 °FCool.1 mph72%30.20 "HgN/A
4:00 amN/APassing clouds.13 mphN/AN/A2 mi
3:00 am54 °FCool.1 mph68%30.21 "HgN/A
2:00 am55 °FCool.2 mph66%30.21 "HgN/A
1:00 amN/APassing clouds.16 mphN/AN/A6 mi
12:00 am57 °FCool.2 mph64%30.19 "HgN/A
10:00 pm
Wed, Sep 18
58 °FCool.1 mph64%30.16 "HgN/A
9:00 pmN/APassing clouds.12 mphN/AN/A28 mi
8:00 pm60 °FCool.2 mph61%30.10 "HgN/A
7:00 pm63 °FMild.1 mph57%30.06 "HgN/A
6:00 pm65 °FMild.2 mph55%30.03 "HgN/A
5:00 pm65 °FMild.3 mph54%30.02 "HgN/A
4:00 pm67 °FMild.3 mph51%30.02 "HgN/A
3:00 pm67 °FMild.2 mph53%30.04 "HgN/A
Weather by CustomWeather, © 2019

See weather overview